[[{"header":{"parameterUnit":"m.s-1","parameterCategory":1,"la1":30.2991,"la2":30.254,"lo1":-89.0895,"lo2":-89.0444,"dy":0.0017,"dx":0.0017,"nx":28,"ny":28,"refTime":"2023-11-07T03:00:00:Z","depth":0,"parameterNumber":2,"parameterNumberName":"U-component_of_WINDS"},"data":[0,0,0,0,0,0,0,0,0,0,0,0,0,0,0,0,0,0,0,0,0,0,0,0,0,0,0,0,0,0,0,0,0,0,0,0,0,0,0,0,0,0,0,0,0,0,0,0,0,0,0,0,0,0,0,0,0,0,-1.0816,-1.0816,0,-1.0809,-1.0809,-1.0809,-1.0759,-1.0757,-1.0756,-1.0755,-1.0749,-1.075,-1.0751,0,0,0,0,0,0,0,0,0,0,0,0,0,-1.0788,-1.0789,-1.0816,-1.0816,-1.0816,-1.0809,-1.0809,-1.0809,-1.0759,-1.0757,-1.0756,-1.0754,-1.0749,-1.075,-1.0751,0,0,0,0,0,0,0,0,0,0,0,0,0,-1.0792,-1.0789,-1.0816,-1.079,-1.0788,-1.0809,-1.0809,-1.0809,-1.0759,-1.0757,-1.0755,-1.0754,-1.0748,-1.075,-1.0751,-1.0798,0,0,-1.0756,-1.0756,0,0,0,0,0,0,0,0,-1.0792,-1.0794,-1.0794,-1.0792,-1.0789,-1.0783,-1.0797,-1.0805,-1.076,-1.077,-1.0755,-1.0753,-1.0762,-1.0762,-1.0765,-1.0797,-1.0797,-1.0756,-1.0757,-1.0757,-1.0758,0,0,0,0,0,0,0,-1.0792,-1.0794,-1.0814,-1.0794,-1.0791,-1.0779,-1.0778,-1.0798,-1.0777,-1.0769,-1.0765,-1.0765,-1.076,-1.0764,-1.0764,-1.0797,-1.0756,-1.0757,-1.0758,-1.0759,-1.0867,-1.0869,0,0,0,0,0,0,-1.0795,-1.0794,-1.0814,-1.0813,-1.0786,-1.0781,-1.078,-1.0787,-1.0776,-1.0773,-1.0767,-1.0763,-1.0762,-1.0763,-1.0764,-1.0817,-1.0757,-1.0759,-1.076,-1.0865,-1.0867,-1.0869,0,0,0,0,0,0,-1.0795,-1.0797,-1.0814,-1.0803,-1.0804,-1.0784,-1.0792,-1.0788,-1.0791,-1.0774,-1.077,-1.0774,-1.076,-1.0762,-1.0789,-1.0816,-1.0759,-1.0761,-1.0862,-1.0865,-1.0868,-1.0924,0,0,0,0,0,0,-1.0794,-1.0798,-1.0815,-1.0803,-1.0805,-1.084,-1.0794,-1.0789,-1.0794,-1.0788,-1.078,-1.0777,-1.0759,-1.0787,-1.0791,-1.0817,-1.0762,-1.086,-1.0864,-1.0867,-1.092,-1.0929,-1.0936,0,0,0,0,0,-1.0793,-1.0831,-1.0816,-1.0819,-1.0825,-1.0841,-1.0842,-1.082,-1.0796,-1.0813,-1.0802,-1.0777,-1.0813,-1.0791,-1.0794,-1.0821,-1.0858,-1.0863,-1.0867,-1.0916,-1.0927,-1.0936,0,0,0,0,0,0,-1.0847,-1.0829,-1.0812,-1.0847,-1.0846,-1.0833,-1.0853,-1.0832,-1.0838,-1.0833,-1.0806,-1.0805,-1.0836,-1.0832,-1.0807,-1.0865,-1.0831,-1.0837,-1.0867,-1.0877,-1.0885,-1.0886,-1.0763,0,0,0,0,0,-1.0863,-1.0876,-1.086,-1.0893,-1.0893,-1.0874,-1.088,-1.0863,-1.0861,-1.086,-1.0851,-1.0851,-1.0862,-1.0869,-1.0878,-1.0919,-1.0916,-1.094,-1.0948,-1.0955,-1.0959,-1.098,-1.099,-1.0884,-1.0884,-1.0884,0,0,-1.0896,-1.0888,-1.0898,-1.0904,-1.0901,-1.0916,-1.0874,-1.0892,-1.0902,-1.0863,-1.0888,-1.0882,-1.0879,-1.0914,-1.0928,-1.091,-1.0988,-1.096,-1.0966,-1.0967,-1.0986,-1.0996,-1.1005,-1.0887,-1.0886,-1.0886,0,0,-1.0963,-1.0959,-1.0985,-1.0983,-1.0979,-1.0965,-1.0972,-1.0962,-1.0956,-1.0981,-1.0951,-1.0964,-1.0984,-1.0983,-1.0985,-1.1053,-1.103,-1.1057,-1.1099,-1.112,-1.1128,-1.1135,-1.1159,-1.1167,-1.1061,-1.1062,-1.1062,0,-1.1004,-1.1026,-1.1001,-1.1021,-1.1024,-1.0989,-1.1016,-1.1015,-1.1014,-1.1018,-1.0998,-1.1021,-1.1017,-1.105,-1.1067,-1.107,-1.1076,-1.1057,-1.1129,-1.1136,-1.1142,-1.1164,-1.1173,-1.1065,-1.1064,-1.1064,-1.1064,0,-1.1077,-1.1092,-1.1114,-1.1113,-1.1119,-1.1142,-1.1122,-1.1131,-1.1114,-1.1103,-1.1129,-1.1122,-1.1129,-1.1136,-1.112,-1.1167,-1.1156,-1.1133,-1.1098,-1.1156,-1.1176,-1.1184,-1.1069,-1.1068,-1.1067,-1.1067,0,0,-1.1177,-1.1163,-1.1171,-1.117,-1.1164,-1.1175,-1.1197,-1.1203,-1.1211,-1.1212,-1.123,-1.1247,-1.1225,-1.1228,-1.1211,-1.123,-1.1283,-1.1204,-1.1203,-1.1218,-1.1334,-1.1351,-1.1361,-1.1268,-1.1269,-1.127,-1.1334,0,-1.1241,-1.1276,-1.1255,-1.1294,-1.1308,-1.1275,-1.1294,-1.1292,-1.1282,-1.1293,-1.1282,-1.1295,-1.1265,-1.1267,-1.1283,-1.1273,-1.1305,-1.1268,-1.1283,-1.1284,-1.1284,-1.1371,-1.1389,-1.1449,-1.1342,-1.1343,-1.1344,0,-1.1321,-1.1324,-1.1364,-1.1354,-1.1359,-1.1376,-1.138,-1.1391,-1.1388,-1.138,-1.1383,-1.1362,-1.1383,-1.1349,-1.1377,-1.1352,-1.1357,-1.1353,-1.1355,-1.1355,-1.1317,-1.1373,-1.1468,-1.1477,-1.1356,-1.1355,-1.1354,0,-1.1389,-1.1404,-1.143,-1.143,-1.142,-1.1432,-1.1429,-1.1424,-1.1429,-1.1433,-1.1436,-1.1443,-1.1446,-1.1452,-1.1434,-1.141,-1.1464,-1.1429,-1.1458,-1.1458,-1.147,-1.1469,-1.1566,-1.1475,-1.1475,-1.1475,-1.1474,0,-1.1462,-1.1488,-1.146,-1.1476,-1.1504,-1.148,-1.1508,-1.1501,-1.1497,-1.1511,-1.1483,-1.1497,-1.1472,-1.1483,-1.1469,-1.1495,-1.1497,-1.1491,-1.1486,-1.1492,-1.1493,-1.1495,-1.149,-1.1477,-1.1476,-1.1476,-1.1476,0,-1.1543,-1.1525,-1.1551,-1.1539,-1.1536,-1.1557,-1.1547,-1.1561,-1.155,-1.1568,-1.1571,-1.1553,-1.1565,-1.1547,-1.1558,-1.1548,-1.1583,-1.1573,-1.1583,-1.158,-1.161,-1.1607,-1.1711,-1.1723,-1.1625,-1.1626,-1.1627,0,-1.159,-1.1609,-1.1599,-1.1606,-1.1603,-1.1615,-1.162,-1.1598,-1.1604,-1.1602,-1.1617,-1.1626,-1.1632,-1.1653,-1.1642,-1.1649,-1.1639,-1.1675,-1.164,-1.1645,-1.1638,-1.1637,-1.1638,-1.1681,-1.1683,-1.1684,-1.1684,0,-1.1676,-1.1666,-1.1674,-1.1679,-1.1686,-1.1689,-1.169,-1.1698,-1.1674,-1.1682,-1.1694,-1.1699,-1.1709,-1.1719,-1.1724,-1.172,-1.1698,-1.1696,-1.1702,-1.1708,-1.1714,-1.171,-1.1602,-1.1693,-1.1692,-1.1692,-1.1691,-1.1691,-1.1741,-1.1756,-1.175,-1.176,-1.1759,-1.176,-1.1773,-1.1763,-1.1772,-1.1778,-1.1764,-1.1779,-1.1776,-1.178,-1.1779,-1.1791,-1.1775,-1.1785,-1.1788,-1.179,-1.1795,-1.1713,-1.1792,-1.1791,-1.1791,-1.1791,-1.1791,0,-1.1824,-1.1819,-1.1829,-1.1831,-1.1838,-1.1817,-1.1817,-1.1825,-1.1838,-1.1837,-1.1844,-1.1857,-1.1866,-1.1856,-1.1863,-1.1874,-1.1865,-1.1877,-1.1876,-1.1875,-1.1809,-1.1801,-1.1885,-1.1885,-1.1885,-1.1885,-1.1885,-1.1885,-1.1869,-1.1892,-1.1882,-1.1905,-1.19,-1.1914,-1.1916,-1.1917,-1.1916,-1.1932,-1.1939,-1.1932,-1.1927,-1.1934,-1.1942,-1.1938,-1.1942,-1.1958,-1.1951,-1.1889,-1.188,-1.1871,-1.1864,-1.1959,-1.1959,-1.2016,-1.2017,-1.2017]},{"header":{"parameterUnit":"m.s-1","parameterCategory":1,"la1":30.2991,"la2":30.254,"lo1":-89.0895,"lo2":-89.0444,"dy":0.0017,"dx":0.0017,"nx":28,"ny":28,"refTime":"2023-11-07T03:00:00:Z","depth":0,"parameterNumber":3,"parameterNumberName":"V-component_of_WINDS"},"data":[0,0,0,0,0,0,0,0,0,0,0,0,0,0,0,0,0,0,0,0,0,0,0,0,0,0,0,0,0,0,0,0,0,0,0,0,0,0,0,0,0,0,0,0,0,0,0,0,0,0,0,0,0,0,0,0,0,0,-0.1962,-0.1963,0,-0.1978,-0.1978,-0.1978,-0.1984,-0.1984,-0.1984,-0.1984,-0.1998,-0.1999,-0.1999,0,0,0,0,0,0,0,0,0,0,0,0,0,-0.1937,-0.1937,-0.1962,-0.1963,-0.1963,-0.1978,-0.1978,-0.1978,-0.1984,-0.1984,-0.1984,-0.1984,-0.1998,-0.1999,-0.1999,0,0,0,0,0,0,0,0,0,0,0,0,0,-0.1949,-0.1937,-0.1962,-0.1968,-0.1968,-0.1978,-0.1978,-0.1978,-0.1984,-0.1984,-0.1984,-0.1984,-0.1998,-0.1999,-0.1999,-0.2004,0,0,-0.2001,-0.2001,0,0,0,0,0,0,0,0,-0.1949,-0.195,-0.1967,-0.1967,-0.1968,-0.1979,-0.1974,-0.1987,-0.1984,-0.1978,-0.1984,-0.1984,-0.1992,-0.1993,-0.1996,-0.2005,-0.2006,-0.2001,-0.2002,-0.2002,-0.2002,0,0,0,0,0,0,0,-0.1948,-0.195,-0.1968,-0.1967,-0.1968,-0.1969,-0.197,-0.1977,-0.1985,-0.1978,-0.1979,-0.1981,-0.1992,-0.1995,-0.1996,-0.2006,-0.2001,-0.2002,-0.2002,-0.2002,-0.2019,-0.2019,0,0,0,0,0,0,-0.1946,-0.1949,-0.1968,-0.1969,-0.1958,-0.1969,-0.1971,-0.1975,-0.1985,-0.1986,-0.1981,-0.1981,-0.1994,-0.1996,-0.1997,-0.2003,-0.2002,-0.2003,-0.2003,-0.2019,-0.2019,-0.202,0,0,0,0,0,0,-0.1946,-0.1948,-0.1967,-0.1959,-0.1962,-0.197,-0.1974,-0.1976,-0.1979,-0.1987,-0.1988,-0.1983,-0.1994,-0.1996,-0.2002,-0.2004,-0.2003,-0.2003,-0.2019,-0.2019,-0.2019,-0.2016,0,0,0,0,0,0,-0.1945,-0.1948,-0.195,-0.1959,-0.1962,-0.1973,-0.1975,-0.1976,-0.198,-0.198,-0.1989,-0.199,-0.1994,-0.2001,-0.2003,-0.2005,-0.2004,-0.2019,-0.2019,-0.2019,-0.2016,-0.2016,-0.2016,0,0,0,0,0,-0.1944,-0.1948,-0.195,-0.1953,-0.1965,-0.1973,-0.1975,-0.198,-0.198,-0.1982,-0.1987,-0.199,-0.2003,-0.2002,-0.2004,-0.2006,-0.2019,-0.2019,-0.2019,-0.2016,-0.2016,-0.2016,0,0,0,0,0,0,-0.1939,-0.195,-0.1952,-0.1959,-0.1965,-0.1974,-0.1977,-0.198,-0.1986,-0.1986,-0.1992,-0.1993,-0.1999,-0.2003,-0.2001,-0.2011,-0.2011,-0.2012,-0.2008,-0.2008,-0.2008,-0.2007,-0.2004,0,0,0,0,0,-0.1939,-0.1945,-0.1954,-0.196,-0.1962,-0.1969,-0.1973,-0.1976,-0.1983,-0.1985,-0.1991,-0.1996,-0.2002,-0.2005,-0.2011,-0.2017,-0.2018,-0.2019,-0.2019,-0.2019,-0.2019,-0.2022,-0.2022,-0.202,-0.202,-0.202,0,0,-0.1939,-0.1945,-0.1949,-0.1959,-0.1964,-0.1969,-0.1971,-0.1977,-0.1981,-0.1986,-0.1992,-0.1996,-0.2003,-0.2009,-0.2012,-0.2013,-0.202,-0.2019,-0.2019,-0.2019,-0.2022,-0.2023,-0.2023,-0.202,-0.202,-0.202,0,0,-0.1941,-0.1947,-0.1952,-0.1957,-0.1965,-0.1969,-0.197,-0.1979,-0.1982,-0.1988,-0.1992,-0.1996,-0.2006,-0.201,-0.2014,-0.2017,-0.2019,-0.2019,-0.2019,-0.2021,-0.2022,-0.2022,-0.2023,-0.2023,-0.2019,-0.2019,-0.2019,0,-0.194,-0.1949,-0.1954,-0.196,-0.1964,-0.1969,-0.1974,-0.1978,-0.1987,-0.199,-0.199,-0.2002,-0.2006,-0.2014,-0.2014,-0.2017,-0.2018,-0.2018,-0.2021,-0.2022,-0.2022,-0.2023,-0.2023,-0.2019,-0.2019,-0.2019,-0.2019,0,-0.1946,-0.1952,-0.1956,-0.1965,-0.1969,-0.1974,-0.198,-0.1984,-0.1987,-0.1991,-0.1997,-0.2003,-0.201,-0.2012,-0.2014,-0.2019,-0.2019,-0.202,-0.2021,-0.2022,-0.2023,-0.2023,-0.2019,-0.2019,-0.2019,-0.2019,0,0,-0.1947,-0.1958,-0.1959,-0.1963,-0.1972,-0.1976,-0.1981,-0.1988,-0.1991,-0.1997,-0.2001,-0.2009,-0.201,-0.2014,-0.2017,-0.2019,-0.2021,-0.202,-0.2021,-0.202,-0.2026,-0.2025,-0.2026,-0.2023,-0.2023,-0.2023,-0.2026,0,-0.195,-0.196,-0.1965,-0.1973,-0.1978,-0.1982,-0.1987,-0.1992,-0.1996,-0.2001,-0.2005,-0.201,-0.2011,-0.2014,-0.2016,-0.2021,-0.2023,-0.202,-0.2026,-0.2027,-0.2025,-0.2026,-0.2026,-0.2028,-0.2026,-0.2026,-0.2026,0,-0.1956,-0.1962,-0.197,-0.1977,-0.198,-0.1984,-0.199,-0.1995,-0.2001,-0.2003,-0.2007,-0.201,-0.2015,-0.2015,-0.2022,-0.2021,-0.2023,-0.2026,-0.2026,-0.2027,-0.2027,-0.2027,-0.2029,-0.2029,-0.2027,-0.2027,-0.2027,0,-0.1955,-0.1965,-0.1971,-0.1974,-0.1983,-0.1986,-0.1989,-0.1995,-0.1999,-0.2004,-0.2006,-0.2012,-0.2015,-0.2019,-0.2024,-0.2023,-0.203,-0.203,-0.2032,-0.2032,-0.2033,-0.2033,-0.2035,-0.2035,-0.2035,-0.2035,-0.2035,0,-0.1958,-0.1963,-0.1971,-0.1974,-0.198,-0.1985,-0.199,-0.1994,-0.1999,-0.2003,-0.2007,-0.2011,-0.2016,-0.2021,-0.2024,-0.2029,-0.203,-0.2032,-0.2033,-0.2032,-0.2032,-0.2034,-0.2034,-0.2035,-0.2035,-0.2035,-0.2035,0,-0.1958,-0.1964,-0.1971,-0.1978,-0.198,-0.1984,-0.199,-0.1994,-0.1998,-0.2003,-0.2005,-0.2011,-0.2016,-0.202,-0.2027,-0.203,-0.2034,-0.2036,-0.2033,-0.2033,-0.2034,-0.2034,-0.2038,-0.2039,-0.2038,-0.2038,-0.2038,0,-0.196,-0.1964,-0.1972,-0.1975,-0.1979,-0.1984,-0.1988,-0.1993,-0.1997,-0.2003,-0.2006,-0.2011,-0.2016,-0.2024,-0.2029,-0.2034,-0.2035,-0.2036,-0.2036,-0.2035,-0.2035,-0.2035,-0.2035,-0.2036,-0.2036,-0.2036,-0.2036,0,-0.1963,-0.1965,-0.197,-0.1977,-0.1981,-0.1986,-0.1991,-0.1993,-0.1999,-0.2003,-0.2009,-0.2012,-0.2019,-0.2024,-0.203,-0.2033,-0.2036,-0.2036,-0.2037,-0.2036,-0.2034,-0.2035,-0.2033,-0.2036,-0.2036,-0.2036,-0.2036,-0.2036,-0.1964,-0.1967,-0.1973,-0.1979,-0.1983,-0.1988,-0.1992,-0.1996,-0.2001,-0.2007,-0.201,-0.2015,-0.202,-0.2028,-0.2031,-0.2035,-0.2036,-0.2037,-0.2037,-0.2037,-0.2037,-0.2033,-0.2036,-0.2036,-0.2036,-0.2036,-0.2036,0,-0.1966,-0.197,-0.1976,-0.1983,-0.1987,-0.1989,-0.1995,-0.1998,-0.2003,-0.2008,-0.2012,-0.2018,-0.2023,-0.2028,-0.2034,-0.2036,-0.2037,-0.2037,-0.2037,-0.2038,-0.2036,-0.2035,-0.2036,-0.2036,-0.2036,-0.2036,-0.2036,-0.2036,-0.1968,-0.1974,-0.1977,-0.1985,-0.1989,-0.1995,-0.1998,-0.2002,-0.2006,-0.2012,-0.2017,-0.202,-0.2025,-0.203,-0.2035,-0.2036,-0.2038,-0.2037,-0.2039,-0.2038,-0.2038,-0.2038,-0.2037,-0.2038,-0.2038,-0.204,-0.204,-0.204]}]]